[[{"header":{"parameterUnit":"m.s-1","parameterCategory":1,"la1":30.2991,"la2":30.254,"lo1":-89.0895,"lo2":-89.0444,"dy":0.0017,"dx":0.0017,"nx":28,"ny":28,"refTime":"2025-09-03T03:00:00:Z","depth":0,"parameterNumber":2,"parameterNumberName":"U-component_of_WINDS"},"data":[0,0,0,0,0,0,0,0,0,0,0,0,0,0,0,0,0,0,0,0,0,0,0,0,0,0,0,0,0,0,0,0,0,0,0,0,0,0,0,0,0,0,0,0,0,0,0,0,0,0,0,0,0,0,0,0,0,0,-1.1312,-1.1312,0,-1.1375,-1.1375,-1.1376,-1.136,-1.1358,-1.1357,-1.1356,-1.1423,-1.1426,-1.1428,0,0,0,0,0,0,0,0,0,0,0,0,0,-1.118,-1.1183,-1.1312,-1.1313,-1.1313,-1.1374,-1.1375,-1.1376,-1.136,-1.1358,-1.1357,-1.1355,-1.1422,-1.1425,-1.1429,0,0,0,0,0,0,0,0,0,0,0,0,0,-1.124,-1.1184,-1.1312,-1.1312,-1.1313,-1.1374,-1.1375,-1.1376,-1.136,-1.1358,-1.1356,-1.1355,-1.1421,-1.1425,-1.1429,-1.1494,0,0,-1.1443,-1.1445,0,0,0,0,0,0,0,0,-1.1237,-1.1245,-1.1312,-1.1312,-1.1313,-1.1357,-1.1354,-1.1416,-1.1361,-1.1342,-1.1356,-1.1354,-1.1403,-1.1408,-1.1424,-1.1497,-1.15,-1.1443,-1.1446,-1.1448,-1.1449,0,0,0,0,0,0,0,-1.1232,-1.1242,-1.1337,-1.1313,-1.1314,-1.1311,-1.1317,-1.1365,-1.1382,-1.1344,-1.1343,-1.135,-1.1403,-1.142,-1.1426,-1.1501,-1.1443,-1.1447,-1.145,-1.1451,-1.1632,-1.1634,0,0,0,0,0,0,-1.1227,-1.1239,-1.1335,-1.1339,-1.1269,-1.1314,-1.1322,-1.1345,-1.1382,-1.1385,-1.1352,-1.1349,-1.1414,-1.1421,-1.1428,-1.1507,-1.1448,-1.1452,-1.1454,-1.163,-1.1632,-1.1635,0,0,0,0,0,0,-1.1224,-1.1236,-1.1332,-1.1288,-1.13,-1.1319,-1.1345,-1.1347,-1.1365,-1.1388,-1.1391,-1.1366,-1.1412,-1.1422,-1.1478,-1.151,-1.1454,-1.1458,-1.1627,-1.1631,-1.1634,-1.1666,0,0,0,0,0,0,-1.1221,-1.1235,-1.1259,-1.1289,-1.1303,-1.138,-1.1347,-1.135,-1.1372,-1.1369,-1.1402,-1.1406,-1.1412,-1.1472,-1.1482,-1.1515,-1.1461,-1.1625,-1.1629,-1.1633,-1.1662,-1.167,-1.1677,0,0,0,0,0,-1.1216,-1.1266,-1.1261,-1.1272,-1.1333,-1.1382,-1.139,-1.1395,-1.1375,-1.14,-1.1415,-1.1405,-1.1504,-1.1477,-1.149,-1.1524,-1.1623,-1.1628,-1.1632,-1.1659,-1.1669,-1.1677,0,0,0,0,0,0,-1.1241,-1.127,-1.1264,-1.1325,-1.1351,-1.1379,-1.1411,-1.1405,-1.1437,-1.1434,-1.1439,-1.1447,-1.1504,-1.1519,-1.1489,-1.1589,-1.1561,-1.1568,-1.1577,-1.1586,-1.1593,-1.1589,-1.1465,0,0,0,0,0,-1.1253,-1.1289,-1.1313,-1.1365,-1.1378,-1.1392,-1.1414,-1.1415,-1.1443,-1.1454,-1.1473,-1.1501,-1.1538,-1.1563,-1.1599,-1.1664,-1.1672,-1.1694,-1.1701,-1.1707,-1.1713,-1.175,-1.1761,-1.1651,-1.1651,-1.165,0,0,-1.1279,-1.13,-1.1322,-1.137,-1.1391,-1.1429,-1.1402,-1.1443,-1.1472,-1.146,-1.1515,-1.153,-1.1561,-1.1622,-1.1651,-1.1637,-1.1745,-1.1713,-1.1717,-1.1721,-1.1756,-1.1767,-1.1776,-1.1654,-1.1653,-1.1653,0,0,-1.1347,-1.1365,-1.1411,-1.1432,-1.1462,-1.1471,-1.1482,-1.1512,-1.1521,-1.1575,-1.1567,-1.1602,-1.1666,-1.1689,-1.1709,-1.1786,-1.1779,-1.1798,-1.1836,-1.1871,-1.188,-1.1888,-1.1916,-1.1926,-1.1804,-1.1804,-1.1804,0,-1.1376,-1.1432,-1.1435,-1.1478,-1.15,-1.149,-1.1537,-1.1557,-1.1598,-1.1614,-1.1598,-1.1679,-1.1699,-1.1766,-1.1785,-1.1801,-1.1815,-1.1794,-1.1878,-1.1886,-1.1894,-1.1921,-1.1931,-1.1806,-1.1806,-1.1806,-1.1806,0,-1.1467,-1.1506,-1.154,-1.1579,-1.1605,-1.1649,-1.166,-1.1685,-1.1685,-1.1696,-1.1752,-1.1776,-1.1817,-1.1833,-1.1833,-1.19,-1.1891,-1.1877,-1.1849,-1.1906,-1.1932,-1.1942,-1.181,-1.1809,-1.1808,-1.1808,0,0,-1.1552,-1.1592,-1.1605,-1.1623,-1.1656,-1.1687,-1.1732,-1.1771,-1.1793,-1.1822,-1.186,-1.1915,-1.1902,-1.1925,-1.1928,-1.1959,-1.202,-1.1941,-1.1942,-1.1956,-1.2097,-1.2108,-1.212,-1.2015,-1.2017,-1.2018,-1.2095,0,-1.1623,-1.17,-1.1705,-1.1775,-1.1812,-1.1804,-1.1843,-1.1868,-1.188,-1.1914,-1.1927,-1.1966,-1.1945,-1.1959,-1.199,-1.2006,-1.2048,-1.2,-1.2052,-1.2053,-1.2045,-1.2133,-1.2145,-1.2216,-1.2105,-1.2106,-1.2107,0,-1.1717,-1.1748,-1.1822,-1.185,-1.1866,-1.1901,-1.1938,-1.197,-1.1999,-1.2005,-1.2031,-1.2029,-1.2076,-1.2045,-1.2111,-1.2078,-1.2099,-1.211,-1.2113,-1.2119,-1.2084,-1.2142,-1.2239,-1.225,-1.2123,-1.2122,-1.2121,0,-1.1773,-1.1833,-1.1885,-1.1901,-1.1935,-1.196,-1.1976,-1.2003,-1.2026,-1.2059,-1.2074,-1.2112,-1.2133,-1.2162,-1.2171,-1.2148,-1.2237,-1.2207,-1.2244,-1.2244,-1.2264,-1.2263,-1.2366,-1.2276,-1.2276,-1.2276,-1.2276,0,-1.1852,-1.1898,-1.1911,-1.1943,-1.1995,-1.2,-1.2051,-1.2065,-1.2089,-1.2125,-1.212,-1.2154,-1.2163,-1.2199,-1.2206,-1.226,-1.2269,-1.2276,-1.2278,-1.2277,-1.2277,-1.2292,-1.2288,-1.2279,-1.2278,-1.2278,-1.2277,0,-1.1924,-1.1934,-1.1991,-1.2018,-1.2026,-1.2063,-1.2088,-1.2119,-1.213,-1.2176,-1.2187,-1.2204,-1.2246,-1.2258,-1.2308,-1.2313,-1.2377,-1.2373,-1.2367,-1.2367,-1.2404,-1.2401,-1.2522,-1.2539,-1.2437,-1.2438,-1.2438,0,-1.1974,-1.2009,-1.2041,-1.2064,-1.208,-1.2118,-1.2142,-1.2148,-1.2173,-1.2209,-1.2237,-1.2278,-1.2311,-1.2379,-1.2397,-1.2436,-1.2434,-1.2474,-1.244,-1.2439,-1.2436,-1.2434,-1.2438,-1.248,-1.2481,-1.2482,-1.2483,0,-1.2064,-1.2067,-1.2101,-1.2137,-1.2165,-1.2194,-1.2222,-1.2242,-1.2252,-1.2281,-1.2323,-1.2349,-1.24,-1.2442,-1.2481,-1.2499,-1.2493,-1.2493,-1.2504,-1.2505,-1.25,-1.2504,-1.2385,-1.2491,-1.249,-1.2489,-1.2489,-1.2489,-1.2127,-1.2158,-1.2185,-1.2223,-1.2245,-1.2271,-1.2302,-1.2316,-1.2352,-1.2393,-1.2395,-1.2442,-1.2471,-1.2523,-1.2542,-1.2579,-1.2568,-1.2583,-1.2588,-1.2592,-1.2595,-1.2493,-1.2587,-1.2586,-1.2586,-1.2586,-1.2586,0,-1.2217,-1.2234,-1.2269,-1.2307,-1.2338,-1.2329,-1.2359,-1.2385,-1.2426,-1.2453,-1.2486,-1.2535,-1.2575,-1.2596,-1.2637,-1.2663,-1.2661,-1.2673,-1.2672,-1.2676,-1.2603,-1.259,-1.2674,-1.2674,-1.2674,-1.2674,-1.2674,-1.2674,-1.2267,-1.232,-1.2326,-1.239,-1.2406,-1.2451,-1.2469,-1.2494,-1.2515,-1.257,-1.2603,-1.2616,-1.2641,-1.2683,-1.272,-1.2726,-1.2741,-1.2755,-1.2759,-1.269,-1.2681,-1.2673,-1.2661,-1.2758,-1.2758,-1.2829,-1.283,-1.283]},{"header":{"parameterUnit":"m.s-1","parameterCategory":1,"la1":30.2991,"la2":30.254,"lo1":-89.0895,"lo2":-89.0444,"dy":0.0017,"dx":0.0017,"nx":28,"ny":28,"refTime":"2025-09-03T03:00:00:Z","depth":0,"parameterNumber":3,"parameterNumberName":"V-component_of_WINDS"},"data":[0,0,0,0,0,0,0,0,0,0,0,0,0,0,0,0,0,0,0,0,0,0,0,0,0,0,0,0,0,0,0,0,0,0,0,0,0,0,0,0,0,0,0,0,0,0,0,0,0,0,0,0,0,0,0,0,0,0,3.8062,3.8062,0,3.8074,3.8075,3.8075,3.8052,3.8051,3.8051,3.805,3.8061,3.8062,3.8063,0,0,0,0,0,0,0,0,0,0,0,0,0,3.8017,3.8018,3.8062,3.8062,3.8062,3.8074,3.8075,3.8075,3.8052,3.8051,3.8051,3.805,3.8061,3.8062,3.8063,0,0,0,0,0,0,0,0,0,0,0,0,0,3.8034,3.8018,3.8062,3.8053,3.8052,3.8074,3.8075,3.8075,3.8053,3.8051,3.805,3.8049,3.8061,3.8062,3.8063,3.8095,0,0,3.8068,3.8069,0,0,0,0,0,0,0,0,3.8033,3.8035,3.8054,3.8053,3.8053,3.8061,3.8063,3.8082,3.8053,3.8052,3.805,3.8049,3.8062,3.8063,3.8068,3.8096,3.8096,3.8068,3.8069,3.807,3.807,0,0,0,0,0,0,0,3.8032,3.8035,3.8067,3.8054,3.8053,3.8047,3.8048,3.8066,3.8063,3.8052,3.8051,3.8052,3.8061,3.8067,3.8068,3.8096,3.8068,3.8069,3.807,3.8071,3.8148,3.815,0,0,0,0,0,0,3.8032,3.8034,3.8066,3.8067,3.804,3.8049,3.805,3.8059,3.8063,3.8062,3.8053,3.8051,3.8065,3.8066,3.8068,3.8104,3.807,3.8071,3.8072,3.8147,3.8149,3.815,0,0,0,0,0,0,3.8031,3.8035,3.8066,3.805,3.8054,3.8051,3.8061,3.806,3.8065,3.8064,3.8063,3.8059,3.8064,3.8066,3.8088,3.8104,3.8072,3.8073,3.8146,3.8148,3.8149,3.8176,0,0,0,0,0,0,3.803,3.8035,3.8047,3.8051,3.8055,3.8086,3.8062,3.8061,3.8068,3.8065,3.8069,3.8069,3.8063,3.8086,3.809,3.8105,3.8074,3.8144,3.8147,3.8149,3.8174,3.8178,3.8182,0,0,0,0,0,3.8028,3.8054,3.8048,3.8052,3.807,3.8087,3.8089,3.8083,3.8069,3.8081,3.808,3.8069,3.8102,3.8089,3.8092,3.8109,3.8143,3.8146,3.8149,3.8172,3.8177,3.8182,0,0,0,0,0,0,3.8053,3.8055,3.8048,3.8076,3.8082,3.8083,3.8098,3.8089,3.8099,3.8096,3.8087,3.8088,3.8111,3.8113,3.8097,3.8139,3.812,3.8124,3.8136,3.8142,3.8146,3.8144,3.8076,0,0,0,0,0,3.8062,3.8076,3.8077,3.8101,3.8105,3.8101,3.8108,3.8103,3.8108,3.811,3.8111,3.8116,3.8127,3.8135,3.8146,3.8174,3.8174,3.8187,3.8192,3.8196,3.8198,3.8211,3.8216,3.8159,3.8159,3.8159,0,0,3.8079,3.8082,3.8092,3.8106,3.811,3.8124,3.8103,3.8119,3.8129,3.8113,3.8133,3.8134,3.8139,3.8164,3.8175,3.8165,3.8214,3.8199,3.8202,3.8202,3.8214,3.822,3.8225,3.816,3.816,3.816,0,0,3.8119,3.8123,3.8143,3.8148,3.8154,3.8151,3.8156,3.8159,3.8159,3.818,3.8167,3.8178,3.8199,3.8202,3.8207,3.8247,3.8236,3.8251,3.8273,3.8286,3.8291,3.8295,3.8307,3.8312,3.8254,3.8254,3.8254,0,3.814,3.8161,3.8155,3.8171,3.8177,3.8163,3.8183,3.8187,3.8196,3.82,3.819,3.8215,3.8217,3.8242,3.8252,3.8257,3.8261,3.825,3.8291,3.8295,3.8298,3.831,3.8315,3.8256,3.8256,3.8256,3.8255,0,3.8186,3.8201,3.8216,3.8225,3.8233,3.8251,3.8246,3.8255,3.8249,3.8247,3.8267,3.827,3.828,3.8286,3.8281,3.831,3.8303,3.8293,3.8274,3.8306,3.8316,3.8321,3.8258,3.8258,3.8257,3.8257,0,0,3.824,3.8245,3.825,3.8253,3.8259,3.827,3.8287,3.8297,3.8304,3.8311,3.8323,3.8341,3.8331,3.8336,3.833,3.8342,3.8371,3.8329,3.8329,3.8335,3.8401,3.8407,3.8413,3.8365,3.8366,3.8367,3.84,0,3.8277,3.8306,3.83,3.8328,3.8341,3.8328,3.8342,3.8347,3.8346,3.8356,3.8355,3.8366,3.8353,3.8356,3.8367,3.8365,3.8384,3.8363,3.8375,3.8375,3.8372,3.8419,3.8426,3.8457,3.8404,3.8405,3.8405,0,3.8324,3.8332,3.8361,3.8363,3.8368,3.8381,3.8389,3.84,3.8404,3.8403,3.8408,3.8401,3.8416,3.8399,3.842,3.8406,3.8411,3.8411,3.8412,3.841,3.8391,3.8417,3.8467,3.8471,3.8412,3.8412,3.8411,0,3.8357,3.8376,3.8395,3.8398,3.8402,3.8411,3.8413,3.8417,3.8423,3.843,3.8434,3.8443,3.8447,3.8454,3.8449,3.8437,3.847,3.8452,3.8467,3.8467,3.8473,3.8472,3.8522,3.848,3.848,3.848,3.848,0,3.8397,3.8415,3.8409,3.8421,3.844,3.8434,3.8453,3.8453,3.8456,3.8467,3.8458,3.8468,3.8461,3.8471,3.8467,3.8483,3.8486,3.8484,3.8482,3.8483,3.8483,3.8485,3.8481,3.8481,3.8481,3.848,3.848,0,3.8437,3.8434,3.8454,3.8456,3.8457,3.8471,3.8472,3.8482,3.8481,3.8494,3.8497,3.8495,3.8505,3.8501,3.8513,3.851,3.853,3.8527,3.8528,3.8527,3.8541,3.8539,3.8592,3.8598,3.8554,3.8554,3.8555,0,3.8462,3.8475,3.8478,3.8485,3.8487,3.8498,3.8504,3.8499,3.8505,3.8511,3.852,3.853,3.8537,3.8555,3.8553,3.8562,3.8557,3.8575,3.8558,3.8558,3.8554,3.8553,3.8553,3.8578,3.8578,3.8579,3.8579,0,3.8505,3.8503,3.8512,3.8521,3.8528,3.8534,3.854,3.8546,3.854,3.8548,3.8559,3.8564,3.8576,3.8585,3.8592,3.8594,3.8585,3.8585,3.8588,3.8588,3.8588,3.8586,3.8535,3.8583,3.8583,3.8582,3.8582,3.8582,3.8537,3.8547,3.855,3.8561,3.8564,3.8569,3.8579,3.8578,3.8587,3.8596,3.8592,3.8604,3.8607,3.8616,3.8619,3.8628,3.862,3.8626,3.8627,3.8628,3.8629,3.8588,3.8629,3.8629,3.8629,3.8629,3.8629,0,3.8578,3.8579,3.8589,3.8596,3.8604,3.8596,3.8602,3.8608,3.8619,3.8623,3.863,3.8642,3.8651,3.865,3.8658,3.8665,3.8661,3.8667,3.8666,3.8666,3.8636,3.8631,3.867,3.867,3.867,3.867,3.867,3.867,3.86,3.8616,3.8614,3.8632,3.8634,3.8645,3.8649,3.8653,3.8656,3.8669,3.8677,3.8677,3.8678,3.8686,3.8694,3.8693,3.8696,3.8703,3.8701,3.8672,3.8668,3.8664,3.8659,3.8704,3.8704,3.873,3.873,3.873]}]]